Location: Clayton (historical)
(34.0300°N, 118.0259°W)
Time: 23:11:42
(UTC+00:00)

ISS - Visible Passes

Search period start: 09 May 2021 00:00
Search period end: 19 May 2021 00:00
Orbit: 417 x 421 km, 51.6° (Epoch: 09 May)

Date Brightness Start Highest point End Pass type
(mag) Time Alt. Az. Time Alt. Az. Time Alt. Az.
12 May -0.8 11:49:27 10° NNW 11:52:02 20° NNE 11:54:36 10° E visible
13 May -0.5 11:02:37 10° N 11:04:24 13° NNE 11:06:10 10° ENE visible
14 May -2.6 03:42:44 10° S 03:45:25 22° SE 03:46:50 17° E visible
14 May -1.1 05:19:09 10° W 05:20:14 17° W 05:20:14 17° W visible
14 May -3.0 11:50:47 10° NW 11:54:07 57° NE 11:57:26 10° ESE visible
15 May -2.8 04:31:20 10° WSW 04:34:36 49° NW 04:37:52 10° NE visible
15 May -1.8 11:03:33 10° NNW 11:06:37 32° NE 11:09:40 10° ESE visible
16 May -3.8 03:43:48 10° SW 03:47:08 87° SE 03:50:31 10° NE visible
16 May -0.3 05:22:53 10° NW 05:24:21 12° NNW 05:25:50 10° N visible
16 May -1.0 10:16:28 10° NNW 10:19:03 20° NNE 10:21:38 10° E visible
16 May -3.2 11:52:48 10° WNW 11:55:56 36° SW 11:59:04 10° SSE visible
17 May -0.7 04:34:18 10° WNW 04:36:42 18° NNW 04:39:06 10° NNE visible
17 May-0.209:33:43ENE09:33:43ENE09:27:11NNWvisible
17 May -3.9 11:07:12 33° WNW 11:08:34 73° SW 11:11:55 10° SE visible
18 May -1.5 03:46:10 10° W 03:49:06 28° NW 03:52:04 10° NNE visible
